Regional Weather Roundup
Issued by NWS

Home | Current Version | Previous Version | Graphics & Text | Print | Product List | Glossary On
Versions: 1 2 3 4 5 6 7 8 9 10 11 12 13 14 15 16 17 18 19 20 21 22 23 24 25 26 27 28 29 30 31 32 33 34 35 36 37 38 39 40 41 42 43 44 45 46 47 48 49 50
909
ASUS44 KLIX 292211
RWRLA
LOUISIANA WEATHER ROUNDUP
NATIONAL WEATHER SERVICE NEW ORLEANS LA
500 PM CDT SUN MAR 29 2015

NOTE: "FAIR" INDICATES FEW OR NO CLOUDS BELOW 12,000 FEET WITH NO
      SIGNIFICANT WEATHER AND/OR OBSTRUCTIONS TO VISIBILITY.
      SKY/WX - SKY CONDITION AND SIGNIFICANT WEATHER.
      TMP - AIR TEMPERATURE.    DP   - DEWPOINT TEMPERATURE.
      RH  - RELATIVE HUMIDITY.  PRES - PRESSURE.
      HX  - HEAT INDEX.         WCI  - WIND CHILL INDEX.

*  THESE STATIONS ARE NOT NWS OR FAA STATIONS AND ARE NOT UNDER
   NWS QUALITY CONTROL.

LAZ040-048-061>063-065-066-069-292300-
SOUTHEAST LOUISIANA

CITY           SKY/WX    TMP DP  RH WIND       PRES   REMARKS
N.O. AUDUBON   NOT AVBL
N.O. INTL ARPT MOSUNNY   74  60  61 SE17G26   30.19F
N.O. LAKEFRONT PTSUNNY   76  59  55 S15       30.20F
SLIDELL        PTSUNNY   73  61  65 SE13      30.20F
BATON ROUGE    PTSUNNY   78  55  44 S18G25    30.16F
BOOTHVILLE     SUNNY     73  62  68 S14G23    30.23F
BELLE CHASSE   MOSUNNY   74  59  59 S14       30.20F
BOGALUSA*        N/A     76  57  52 S9        30.20F
GALLIANO*      PTCLDY    78  61  55 MISG      30.21F
NEW ROADS*     FAIR      78  57  48 S14G21    30.15F
GONZALES*      MOCLDY    79  57  48 S13G20    30.17F
HAMMOND*       PTSUNNY   75  59  57 SE12      30.20S
HOUMA*         MOSUNNY   75  63  64 S12       30.20F
PORT FOURCHON* CLEAR     73  64  73 SE10      30.25S

$$

LAZ041-044-053-054-292300-
SOUTHWEST LOUISIANA

CITY           SKY/WX    TMP DP  RH WIND       PRES   REMARKS
LAKE CHARLES   SUNNY     75  61  61 SW15G24   30.16S
LAFAYETTE      MOSUNNY   76  60  57 S18G25    30.16F
PATTERSON      MOSUNNY   75  57  53 S13G20    30.20F
SALT POINT       N/A     73  65  75 VRB3      30.18F
NEW IBERIA     PTSUNNY   77  60  55 S22       30.18F
CHENAULT AIRPK NOT AVBL

$$

LAZ027-028-292300-
CENTRAL LOUISIANA

CITY           SKY/WX    TMP DP  RH WIND       PRES   REMARKS
FORT POLK      MOSUNNY   79  58  48 S18G24    30.10S
ALEXANDRIA INT SUNNY     80  56  43 S16G26    30.08S
ALEXANDRIA     SUNNY     80  56  43 S20G29    30.10S

$$

LAZ001-002-292300-
NORTHWEST LOUISIANA

CITY           SKY/WX    TMP DP  RH WIND       PRES   REMARKS
SHREVEPORT     MOSUNNY   84  54  35 SW16G25   30.00F
BARKSDALE AFB  SUNNY     83  56  39 S20       30.01F
DTN SHREVEPORT SUNNY     82  54  37 S15G24    30.01F

$$

LAZ014-016-292300-
NORTHEAST LOUISIANA

CITY           SKY/WX    TMP DP  RH WIND       PRES   REMARKS
MONROE         SUNNY     80  59  48 S13G23    30.04F
TALLULAH       SUNNY     78  56  46 SW15G26   30.09F

$$




USA.gov is the U.S. government's official web portal to all federal, state and local government web resources and services.